Terminal Aerodrome Forecast
Issued by NWS

Home | Current Version | Previous Version | Text Only | Print | Product List | Glossary On
Versions: 1 2 3 4 5 6 7 8 9 10 11 12 13 14 15 16 17 18 19 20 21 22 23
000
FTUS43 KDLH 290100 AAA
TAFHIB
TAF AMD
KHIB 290127Z 2901/2924 16009KT P6SM BKN130
     FM290300 16004KT P6SM VCSH SCT025 BKN080 WS020/21030KT
     FM291100 20004KT 6SM -SHRA OVC025
      TEMPO 2911/2914 3SM -TSRA BR OVC015CB
     FM291400 26007KT 6SM -SHRA OVC015
     FM291700 34013G20KT P6SM VCSH BKN025
     FM292200 34012G18KT P6SM SCT015 BKN040=

USA.gov is the U.S. government's official web portal to all federal, state and local government web resources and services.